EW1979 Weather Reports


Display with metric or nautical units.
time (UTC)temp
F
wind
direction
speed
MPH
gust
MPH
rain 1hr
in
rain 24hr
in
rain mn
in
humidity
%
barometer
mb
20260505124609 66 187 0.0 0.0 0.00 0.00 0.00 100 1005.1
20260505121502 66 192 0.0 0.0 0.00 0.00 0.00 100 1004.9
20260505114504 66 200 0.0 0.0 0.00 0.00 0.00 100 1004.3
20260505113008 66 209 0.0 0.0 0.00 0.00 0.00 100 1004.2
20260505100037 66 180 0.0 0.0 0.00 0.00 0.00 3 1004.3
20260505094507 66 196 0.0 0.0 0.00 0.00 0.00 6 1004.4
20260505093003 66 178 0.0 0.0 0.00 0.00 0.00 8 1004.5
20260505084603 67 169 0.0 0.0 0.00 0.00 0.00 15 1004.5
20260505083008 67 198 0.0 0.0 0.00 0.00 0.00 18 1004.6
20260505081635 67 194 0.0 0.0 0.00 0.00 0.00 21 1004.9
20260505073004 67 182 0.0 0.0 0.00 0.00 0.00 27 1005.4
20260505071510 67 167 0.0 0.0 0.00 0.00 0.00 28 1005.6
20260505070003 67 161 0.0 0.0 0.00 0.00 0.00 29 1005.7
20260505064508 67 206 0.0 0.0 0.00 0.00 0.00 30 1005.9
20260505061502 67 204 0.0 0.0 0.00 0.00 0.00 36 1006.2
20260505060007 67 187 0.0 0.0 0.00 0.00 0.00 41 1006.1
20260505054602 68 200 0.0 0.0 0.00 0.00 0.00 47 1006.3
20260505053003 68 199 0.0 0.0 0.00 0.00 0.00 55 1006.4
20260505051516 68 191 0.0 0.0 0.00 0.00 0.00 62 1006.2
20260505041605 69 172 0.0 0.0 0.00 0.00 0.00 78 1006.1
20260505040004 69 172 0.0 0.0 0.00 0.00 0.00 80 1006.3
20260505034603 70 191 0.0 0.0 0.00 0.00 0.00 80 1006.3
20260505033003 70 181 0.0 0.0 0.00 0.00 0.00 79 1006.2
20260505031503 71 168 0.0 0.0 0.00 0.00 0.00 78 1006.1
20260505021501 71 198 0.0 0.0 0.00 0.00 0.00 76 1006.5
20260505013127 72 196 0.0 0.0 0.00 0.00 0.00 75 1006.3
20260505011633 73 182 0.0 0.0 0.00 0.00 0.00 74 1006.2
20260505010002 73 184 0.0 0.0 0.00 0.00 0.00 73 1006.3
20260505004605 74 186 0.0 0.0 0.00 0.00 0.00 72 1006.3
20260505003106 74 207 0.0 0.0 0.00 0.00 0.00 71 1006.1
20260505001602 74 167 0.0 0.0 0.00 0.00 0.00 71 1006.0
20260504234505 75 161 0.0 0.0 0.00 0.00 0.00 69 1005.9
20260504233118 75 177 0.0 0.0 0.00 0.00 0.00 69 1006.0
20260504231602 76 196 0.0 0.0 0.00 0.00 0.00 68 1006.3
20260504230107 76 165 0.0 0.0 0.00 0.00 0.00 69 1006.5
20260504224608 76 175 0.0 0.0 0.00 0.00 0.00 68 1006.7
20260504223008 76 152 0.0 0.0 0.00 0.00 0.00 68 1007.0
20260504221503 76 149 0.0 0.0 0.00 0.00 0.00 69 1007.0
20260504214616 76 198 0.0 0.0 0.00 0.00 0.00 68 1007.2
20260504213007 75 207 0.0 0.0 0.00 0.00 0.00 68 1007.3
20260504211603 74 178 0.0 0.0 0.00 0.00 0.00 70 1007.8
20260504210105 75 163 0.0 0.0 0.00 0.00 0.00 70 1008.0
20260504204606 75 182 0.0 0.0 0.00 0.00 0.00 69 1008.2
20260504203010 75 186 0.0 0.0 0.00 0.00 0.00 71 1008.4
20260504200004 74 194 0.0 0.0 0.00 0.00 0.00 70 1008.9
20260504194503 74 220 0.0 0.0 0.00 0.00 0.00 70 1009.3
20260504184504 73 182 0.0 0.0 0.00 0.00 0.00 71 1009.6
20260504181512 73 207 0.0 0.0 0.00 0.00 0.00 71 1010.2
20260504180007 72 163 0.0 0.0 0.00 0.00 0.00 72 1010.2
20260504174507 73 193 0.0 0.0 0.00 0.00 0.00 70 1010.4
20260504173007 71 186 0.0 0.0 0.00 0.00 0.00 73 1010.6
20260504171509 71 184 0.0 0.0 0.00 0.00 0.00 73 1010.5
20260504160106 68 169 0.0 0.0 0.00 0.00 0.00 75 1011.2
20260504140113 62 193 0.0 0.0 0.00 0.00 0.00 62 1011.8